When you browse on this site, cookies collect data to enhance your experience and personalize the content and advertising you see.
Visit our Privacy Policy to learn more. By continuing to use the site, you agree to this use of cookies and data.
  • In Switzerland
  • List of Countries
  • For 7 days
  • Water Temperature
  • Weather Map
  • Weather Widgets
  • user-avatar
    Login

    Hourly Weather Brisbane

    Today, 25 May, Monday

    Time Temperature Precipitation Wind Pressure Humidity
    00:00 +12°C° 0 mm 3 mps 757 mmHg 78%
    01:00 +13°C° 0 mm 2 mps 757 mmHg 80%
    02:00 +13°C° 0 mm 2 mps 757 mmHg 80%
    03:00 +13°C° 0 mm 2 mps 758 mmHg 79%
    04:00 +12°C° 0 mm 2 mps 758 mmHg 82%
    05:00 +12°C° 0 mm 2 mps 758 mmHg 82%
    06:00 +12°C° 0 mm 2 mps 759 mmHg 82%
    07:00 +12°C° 0 mm 2 mps 759 mmHg 82%
    08:00 +14°C° 0 mm 2 mps 759 mmHg 73%
    09:00 +18°C° 0 mm 1 mps 759 mmHg 64%
    10:00 +19°C° 0 mm 2 mps 759 mmHg 54%
    11:00 +21°C° 0 mm 2 mps 759 mmHg 49%
    12:00 +23°C° 0 mm 1 mps 759 mmHg 44%
    13:00 +25°C° 0 mm 1 mps 758 mmHg 39%
    14:00 +24°C° 0 mm 1 mps 758 mmHg 41%
    15:00 +24°C° 0 mm 1 mps 758 mmHg 44%
    16:00 +23°C° 0 mm 1 mps 758 mmHg 46%
    17:00 +22°C° 0 mm 1 mps 759 mmHg 50%
    18:00 +20°C° 0 mm 1 mps 759 mmHg 55%
    19:00 +18°C° 0 mm 2 mps 759 mmHg 59%
    20:00 +17°C° 0 mm 2 mps 760 mmHg 60%
    21:00 +16°C° 0 mm 2 mps 760 mmHg 62%
    22:00 +15°C° 0 mm 2 mps 761 mmHg 63%
    23:00 +15°C° 0 mm 2 mps 761 mmHg 64%

    Tomorrow, 26 May, Tuesday

    Time Temperature Precipitation Wind Pressure Humidity
    00:00 +15°C° 0 mm 2 mps 761 mmHg 65%
    01:00 +14°C° 0 mm 2 mps 761 mmHg 65%
    02:00 +14°C° 0 mm 2 mps 761 mmHg 67%
    03:00 +13°C° 0 mm 3 mps 761 mmHg 68%
    04:00 +12°C° 0 mm 3 mps 761 mmHg 70%
    05:00 +12°C° 0 mm 3 mps 761 mmHg 71%
    06:00 +13°C° 0 mm 2 mps 762 mmHg 73%
    07:00 +12°C° 0 mm 2 mps 762 mmHg 74%
    08:00 +15°C° 0 mm 2 mps 762 mmHg 67%
    09:00 +17°C° 0 mm 2 mps 762 mmHg 59%
    10:00 +19°C° 0 mm 2 mps 762 mmHg 52%
    11:00 +21°C° 0 mm 2 mps 762 mmHg 47%
    12:00 +24°C° 0 mm 1 mps 761 mmHg 42%
    13:00 +23°C° 0 mm 0 mps 760 mmHg 38%
    14:00 +25°C° 0 mm 1 mps 761 mmHg 40%
    15:00 +24°C° 0 mm 1 mps 761 mmHg 42%
    16:00 +23°C° 0 mm 1 mps 761 mmHg 45%
    17:00 +21°C° 0 mm 1 mps 762 mmHg 53%
    18:00 +20°C° 0 mm 1 mps 762 mmHg 62%
    19:00 +18°C° 0 mm 1 mps 762 mmHg 70%
    20:00 +18°C° 0 mm 1 mps 763 mmHg 72%
    21:00 +16°C° 0 mm 1 mps 763 mmHg 73%
    22:00 +16°C° 0 mm 1 mps 764 mmHg 75%
    23:00 +15°C° 0 mm 1 mps 763 mmHg 74%

    Day after tomorrow, 27 May, Wednesday

    Time Temperature Precipitation Wind Pressure Humidity
    00:00 +15°C° 0 mm 1 mps 763 mmHg 74%
    01:00 +15°C° 0 mm 2 mps 763 mmHg 73%
    02:00 +15°C° 0 mm 2 mps 763 mmHg 75%
    03:00 +14°C° 0 mm 2 mps 763 mmHg 76%
    04:00 +14°C° 0 mm 1 mps 763 mmHg 77%
    05:00 +14°C° 0 mm 1 mps 763 mmHg 77%
    06:00 +14°C° 0 mm 1 mps 764 mmHg 77%
    07:00 +14°C° 0 mm 1 mps 764 mmHg 78%
    08:00 +18°C° 0 mm 1 mps 765 mmHg 70%
    09:00 +20°C° 0 mm 1 mps 765 mmHg 63%
    10:00 +22°C° 0 mm 1 mps 765 mmHg 56%
    11:00 +23°C° 0 mm 1 mps 764 mmHg 53%
    12:00 +24°C° 0 mm 1 mps 763 mmHg 50%
    13:00 +23°C° 0 mm 0 mps 763 mmHg 47%
    14:00 +25°C° 0 mm 1 mps 762 mmHg 49%
    15:00 +24°C° 0 mm 1 mps 762 mmHg 52%
    16:00 +24°C° 0 mm 1 mps 762 mmHg 55%
    17:00 +22°C° 0 mm 1 mps 763 mmHg 61%
    18:00 +21°C° 0 mm 1 mps 763 mmHg 67%
    19:00 +19°C° 0 mm 1 mps 763 mmHg 73%
    20:00 +19°C° 0 mm 1 mps 763 mmHg 75%
    21:00 +18°C° 0 mm 1 mps 764 mmHg 77%
    22:00 +16°C° 0 mm 0 mps 764 mmHg 79%
    23:00 +16°C° 0 mm 1 mps 764 mmHg 80%

    28 May, Thursday

    Time Temperature Precipitation Wind Pressure Humidity
    00:00 +16°C° 0 mm 1 mps 764 mmHg 81%
    01:00 +16°C° 0 mm 1 mps 763 mmHg 83%
    02:00 +15°C° 0 mm 1 mps 764 mmHg 84%
    03:00 +15°C° 0 mm 1 mps 764 mmHg 84%
    04:00 +15°C° 0 mm 1 mps 764 mmHg 85%
    05:00 +15°C° 0 mm 1 mps 764 mmHg 86%
    06:00 +14°C° 0 mm 1 mps 764 mmHg 86%
    07:00 +14°C° 0 mm 1 mps 765 mmHg 86%
    08:00 +18°C° 0 mm 1 mps 765 mmHg 76%
    09:00 +20°C° 0 mm 1 mps 765 mmHg 66%
    10:00 +23°C° 0 mm 1 mps 765 mmHg 56%
    11:00 +24°C° 0 mm 1 mps 764 mmHg 51%
    12:00 +25°C° 0 mm 1 mps 764 mmHg 46%
    13:00 +26°C° 0 mm 1 mps 763 mmHg 41%
    14:00 +26°C° 0 mm 1 mps 763 mmHg 43%
    15:00 +25°C° 0 mm 1 mps 763 mmHg 45%
    16:00 +24°C° 0 mm 1 mps 763 mmHg 48%
    17:00 +23°C° 0 mm 1 mps 763 mmHg 57%
    18:00 +21°C° 0 mm 1 mps 764 mmHg 67%
    19:00 +19°C° 0 mm 1 mps 764 mmHg 77%
    20:00 +19°C° 0 mm 1 mps 764 mmHg 78%
    21:00 +18°C° 0 mm 1 mps 765 mmHg 80%
    22:00 +16°C° 0 mm 0 mps 765 mmHg 82%
    23:00 +16°C° 0 mm 1 mps 765 mmHg 82%

    29 May, Friday

    Time Temperature Precipitation Wind Pressure Humidity
    00:00 +16°C° 0 mm 1 mps 765 mmHg 82%
    01:00 +15°C° 0 mm 1 mps 765 mmHg 82%
    02:00 +15°C° 0 mm 2 mps 765 mmHg 83%
    03:00 +15°C° 0 mm 2 mps 765 mmHg 84%
    04:00 +14°C° 0 mm 2 mps 765 mmHg 85%
    05:00 +14°C° 0 mm 2 mps 765 mmHg 85%
    06:00 +14°C° 0 mm 2 mps 765 mmHg 85%
    07:00 +14°C° 0 mm 2 mps 766 mmHg 86%
    08:00 +16°C° 0 mm 2 mps 766 mmHg 77%
    09:00 +19°C° 0 mm 2 mps 766 mmHg 68%
    10:00 +21°C° 0 mm 2 mps 766 mmHg 59%
    11:00 +23°C° 0 mm 2 mps 765 mmHg 56%
    12:00 +24°C° 0 mm 2 mps 765 mmHg 53%
    13:00 +25°C° 0 mm 3 mps 764 mmHg 49%
    14:00 +24°C° 0.1 mm 3 mps 764 mmHg 54%
    15:00 +22°C° 0.1 mm 3 mps 764 mmHg 60%
    16:00 +21°C° 0.1 mm 3 mps 764 mmHg 65%
    17:00 +20°C° 0.1 mm 3 mps 765 mmHg 69%
    18:00 +19°C° 0.1 mm 3 mps 765 mmHg 73%
    19:00 +18°C° 0.1 mm 3 mps 766 mmHg 77%
    20:00 +17°C° 0.1 mm 3 mps 766 mmHg 79%
    21:00 +17°C° 0.1 mm 2 mps 766 mmHg 81%
    22:00 +16°C° 0.1 mm 2 mps 767 mmHg 83%
    23:00 +16°C° 0 mm 2 mps 767 mmHg 83%

    30 May, Saturday

    Time Temperature Precipitation Wind Pressure Humidity
    00:00 +15°C° 0 mm 2 mps 766 mmHg 84%
    01:00 +15°C° 0 mm 2 mps 766 mmHg 85%
    02:00 +15°C° 0 mm 2 mps 766 mmHg 85%
    03:00 +14°C° 0 mm 2 mps 766 mmHg 86%
    04:00 +14°C° 0 mm 2 mps 766 mmHg 86%
    05:00 +14°C° 0 mm 2 mps 767 mmHg 87%
    06:00 +14°C° 0 mm 2 mps 767 mmHg 87%
    07:00 +14°C° 0 mm 2 mps 768 mmHg 87%
    08:00 +16°C° 0 mm 2 mps 767 mmHg 78%
    09:00 +18°C° 0 mm 2 mps 767 mmHg 69%
    10:00 +20°C° 0 mm 2 mps 767 mmHg 60%
    11:00 +21°C° 0 mm 2 mps 767 mmHg 54%
    12:00 +23°C° 0 mm 2 mps 766 mmHg 49%
    13:00 +24°C° 0 mm 2 mps 765 mmHg 44%
    14:00 +24°C° 0 mm 2 mps 765 mmHg 48%
    15:00 +23°C° 0 mm 2 mps 765 mmHg 51%
    16:00 +22°C° 0 mm 3 mps 765 mmHg 55%
    17:00 +20°C° 0 mm 2 mps 766 mmHg 63%
    18:00 +19°C° 0 mm 2 mps 766 mmHg 70%
    19:00 +17°C° 0 mm 2 mps 767 mmHg 77%
    20:00 +17°C° 0 mm 2 mps 767 mmHg 80%
    21:00 +18°C° 0 mm 1 mps 767 mmHg 82%
    22:00 +16°C° 0 mm 1 mps 767 mmHg 85%
    23:00 +16°C° 0 mm 1 mps 767 mmHg 86%
    Show more